[[{"header":{"parameterUnit":"m.s-1","parameterCategory":1,"la1":30.2991,"la2":30.254,"lo1":-89.0895,"lo2":-89.0444,"dy":0.0017,"dx":0.0017,"nx":28,"ny":28,"refTime":"2025-01-21T09:00:00:Z","depth":0,"parameterNumber":2,"parameterNumberName":"U-component_of_WINDS"},"data":[0,0,0,0,0,0,0,0,0,0,0,0,0,0,0,0,0,0,0,0,0,0,0,0,0,0,0,0,0,0,0,0,0,0,0,0,0,0,0,0,0,0,0,0,0,0,0,0,0,0,0,0,0,0,0,0,0,0,-0.1129,-0.1129,0,-0.1194,-0.1195,-0.1195,-0.1172,-0.117,-0.1169,-0.1168,-0.1238,-0.1241,-0.1244,0,0,0,0,0,0,0,0,0,0,0,0,0,-0.0986,-0.0989,-0.1129,-0.1129,-0.113,-0.1194,-0.1195,-0.1196,-0.1172,-0.117,-0.1169,-0.1167,-0.1237,-0.124,-0.1244,0,0,0,0,0,0,0,0,0,0,0,0,0,-0.105,-0.099,-0.1128,-0.1126,-0.1127,-0.1194,-0.1195,-0.1196,-0.1173,-0.117,-0.1168,-0.1166,-0.1235,-0.124,-0.1245,-0.1319,0,0,-0.126,-0.1262,0,0,0,0,0,0,0,0,-0.1046,-0.1055,-0.1126,-0.1126,-0.1127,-0.1172,-0.117,-0.1237,-0.1173,-0.1155,-0.1167,-0.1165,-0.1218,-0.1224,-0.1241,-0.1322,-0.1325,-0.126,-0.1263,-0.1265,-0.1266,0,0,0,0,0,0,0,-0.1042,-0.1052,-0.1155,-0.1127,-0.1128,-0.1123,-0.1129,-0.1183,-0.1198,-0.1157,-0.1155,-0.1163,-0.1218,-0.1237,-0.1243,-0.1326,-0.126,-0.1264,-0.1267,-0.1269,-0.1473,-0.1475,0,0,0,0,0,0,-0.1037,-0.1048,-0.1152,-0.1157,-0.108,-0.1127,-0.1134,-0.116,-0.1198,-0.1201,-0.1165,-0.1162,-0.1229,-0.1237,-0.1245,-0.1336,-0.1265,-0.127,-0.1272,-0.147,-0.1473,-0.1476,0,0,0,0,0,0,-0.1034,-0.1046,-0.115,-0.1102,-0.1115,-0.1132,-0.1161,-0.1163,-0.1181,-0.1204,-0.1207,-0.1181,-0.1228,-0.1238,-0.1301,-0.1338,-0.1272,-0.1276,-0.1467,-0.1471,-0.1474,-0.1517,0,0,0,0,0,0,-0.103,-0.1045,-0.1073,-0.1103,-0.1118,-0.1204,-0.1163,-0.1165,-0.1189,-0.1186,-0.122,-0.1223,-0.1227,-0.1294,-0.1306,-0.1343,-0.128,-0.1464,-0.1469,-0.1473,-0.1512,-0.1521,-0.1529,0,0,0,0,0,-0.1025,-0.1083,-0.1075,-0.1087,-0.1153,-0.1206,-0.1215,-0.1217,-0.1192,-0.1221,-0.1235,-0.1222,-0.1331,-0.13,-0.1314,-0.1353,-0.1462,-0.1468,-0.1473,-0.1508,-0.152,-0.1529,0,0,0,0,0,0,-0.1058,-0.1087,-0.1078,-0.1147,-0.1174,-0.1202,-0.1238,-0.1229,-0.1264,-0.126,-0.1262,-0.1269,-0.1334,-0.1349,-0.1315,-0.1427,-0.1393,-0.1401,-0.1415,-0.1426,-0.1435,-0.1431,-0.1284,0,0,0,0,0,-0.1073,-0.1114,-0.1137,-0.1196,-0.1209,-0.1222,-0.1245,-0.1244,-0.1273,-0.1284,-0.1303,-0.1332,-0.1373,-0.14,-0.1439,-0.1513,-0.1521,-0.1547,-0.1556,-0.1563,-0.1571,-0.1612,-0.1625,-0.1494,-0.1494,-0.1494,0,0,-0.1106,-0.1126,-0.1152,-0.1203,-0.1224,-0.1266,-0.1231,-0.1278,-0.131,-0.1292,-0.1352,-0.1367,-0.1399,-0.1469,-0.15,-0.1484,-0.1608,-0.157,-0.1575,-0.158,-0.1619,-0.1632,-0.1643,-0.1498,-0.1497,-0.1497,0,0,-0.1187,-0.1206,-0.1258,-0.1279,-0.1311,-0.1318,-0.133,-0.1359,-0.1368,-0.1428,-0.1416,-0.1454,-0.1524,-0.1548,-0.157,-0.1659,-0.1649,-0.1671,-0.1717,-0.1758,-0.1768,-0.1777,-0.1811,-0.1823,-0.1679,-0.1679,-0.1679,0,-0.1224,-0.1287,-0.1286,-0.1334,-0.1357,-0.1341,-0.1394,-0.1415,-0.1458,-0.1475,-0.1455,-0.1543,-0.1563,-0.1638,-0.166,-0.1677,-0.1693,-0.1669,-0.1766,-0.1776,-0.1784,-0.1816,-0.1829,-0.1682,-0.1681,-0.1681,-0.1681,0,-0.1331,-0.1375,-0.1413,-0.1454,-0.1482,-0.1532,-0.1539,-0.1567,-0.1564,-0.1573,-0.1635,-0.1659,-0.1703,-0.172,-0.1718,-0.1795,-0.1784,-0.1765,-0.1731,-0.1799,-0.183,-0.1842,-0.1686,-0.1685,-0.1684,-0.1683,0,0,-0.1438,-0.1477,-0.1491,-0.151,-0.1543,-0.1577,-0.1626,-0.1668,-0.1693,-0.1722,-0.1765,-0.1824,-0.1807,-0.1831,-0.1831,-0.1866,-0.1937,-0.1843,-0.1844,-0.1861,-0.2026,-0.2041,-0.2055,-0.1929,-0.1932,-0.1933,-0.2023,0,-0.1523,-0.1609,-0.161,-0.169,-0.1731,-0.1715,-0.1759,-0.1784,-0.1794,-0.1831,-0.1842,-0.1885,-0.1858,-0.1873,-0.1907,-0.1921,-0.197,-0.1914,-0.1971,-0.1973,-0.1965,-0.207,-0.2087,-0.2171,-0.2035,-0.2037,-0.2038,0,-0.1635,-0.1667,-0.1751,-0.1779,-0.1796,-0.1835,-0.1873,-0.1908,-0.1937,-0.1942,-0.1968,-0.1962,-0.2014,-0.1976,-0.2048,-0.201,-0.2032,-0.2042,-0.2046,-0.2053,-0.2011,-0.2082,-0.2197,-0.2211,-0.2057,-0.2055,-0.2054,0,-0.1706,-0.1771,-0.183,-0.1846,-0.1879,-0.1907,-0.1922,-0.1948,-0.1973,-0.2007,-0.2023,-0.2062,-0.2084,-0.2115,-0.212,-0.2092,-0.2193,-0.2155,-0.22,-0.22,-0.2223,-0.2222,-0.2346,-0.2235,-0.2234,-0.2234,-0.2234,0,-0.1803,-0.1855,-0.1862,-0.1899,-0.1957,-0.1957,-0.2015,-0.2028,-0.2051,-0.2091,-0.2079,-0.2117,-0.212,-0.2159,-0.2163,-0.2222,-0.2232,-0.2238,-0.2239,-0.2241,-0.224,-0.2257,-0.2252,-0.2237,-0.2237,-0.2236,-0.2235,0,-0.1893,-0.19,-0.1963,-0.1989,-0.1996,-0.2038,-0.2061,-0.2096,-0.2104,-0.2154,-0.2166,-0.2179,-0.2224,-0.2232,-0.2285,-0.2288,-0.2359,-0.2353,-0.235,-0.2349,-0.2394,-0.2391,-0.2535,-0.2554,-0.2428,-0.2429,-0.243,0,-0.1956,-0.1995,-0.2025,-0.205,-0.2066,-0.2107,-0.2132,-0.2133,-0.216,-0.2195,-0.2227,-0.227,-0.2305,-0.2378,-0.2393,-0.2433,-0.2429,-0.2477,-0.2436,-0.2436,-0.2432,-0.2431,-0.2435,-0.2486,-0.2487,-0.2488,-0.2489,0,-0.2066,-0.2067,-0.2103,-0.2141,-0.2171,-0.2201,-0.223,-0.2251,-0.2255,-0.2286,-0.2332,-0.2359,-0.2412,-0.2456,-0.2496,-0.2513,-0.2503,-0.2502,-0.2514,-0.2517,-0.2514,-0.2518,-0.2373,-0.2499,-0.2498,-0.2497,-0.2497,-0.2496,-0.2146,-0.2181,-0.2207,-0.2248,-0.2269,-0.2296,-0.233,-0.2342,-0.238,-0.2423,-0.2421,-0.2471,-0.2499,-0.2551,-0.257,-0.261,-0.2595,-0.2613,-0.2618,-0.2623,-0.2628,-0.2506,-0.2617,-0.2617,-0.2617,-0.2616,-0.2616,0,-0.2257,-0.2273,-0.231,-0.235,-0.2382,-0.2368,-0.2398,-0.2427,-0.2471,-0.2497,-0.2531,-0.2584,-0.2626,-0.2644,-0.2685,-0.2714,-0.271,-0.2725,-0.2724,-0.2728,-0.2639,-0.2624,-0.2727,-0.2727,-0.2727,-0.2727,-0.2727,-0.2727,-0.2319,-0.2378,-0.2382,-0.2451,-0.2467,-0.2515,-0.2534,-0.2559,-0.258,-0.2639,-0.2673,-0.2684,-0.2707,-0.275,-0.2789,-0.2793,-0.2809,-0.2827,-0.2829,-0.2746,-0.2734,-0.2724,-0.271,-0.283,-0.283,-0.2916,-0.2916,-0.2917]},{"header":{"parameterUnit":"m.s-1","parameterCategory":1,"la1":30.2991,"la2":30.254,"lo1":-89.0895,"lo2":-89.0444,"dy":0.0017,"dx":0.0017,"nx":28,"ny":28,"refTime":"2025-01-21T09:00:00:Z","depth":0,"parameterNumber":3,"parameterNumberName":"V-component_of_WINDS"},"data":[0,0,0,0,0,0,0,0,0,0,0,0,0,0,0,0,0,0,0,0,0,0,0,0,0,0,0,0,0,0,0,0,0,0,0,0,0,0,0,0,0,0,0,0,0,0,0,0,0,0,0,0,0,0,0,0,0,0,-9.6481,-9.6482,0,-9.6629,-9.6631,-9.6633,-9.6496,-9.6491,-9.6485,-9.648,-9.6625,-9.6634,-9.6643,0,0,0,0,0,0,0,0,0,0,0,0,0,-9.6071,-9.6079,-9.648,-9.6482,-9.6484,-9.6629,-9.6631,-9.6633,-9.6497,-9.6491,-9.6484,-9.6478,-9.6622,-9.6633,-9.6643,0,0,0,0,0,0,0,0,0,0,0,0,0,-9.6237,-9.6082,-9.648,-9.6434,-9.6431,-9.6629,-9.6631,-9.6634,-9.6499,-9.649,-9.6482,-9.6474,-9.6618,-9.6632,-9.6645,-9.6893,0,0,-9.6686,-9.6692,0,0,0,0,0,0,0,0,-9.6228,-9.6252,-9.6439,-9.6438,-9.6435,-9.6536,-9.654,-9.672,-9.6501,-9.6473,-9.648,-9.647,-9.6601,-9.6616,-9.6662,-9.69,-9.6906,-9.6687,-9.6695,-9.6701,-9.6705,0,0,0,0,0,0,0,-9.6216,-9.6245,-9.6539,-9.6442,-9.6439,-9.6403,-9.6418,-9.6573,-9.6581,-9.6475,-9.6465,-9.6485,-9.6599,-9.6649,-9.6664,-9.6908,-9.6687,-9.6699,-9.6707,-9.6712,-9.7355,-9.7364,0,0,0,0,0,0,-9.6211,-9.6236,-9.6534,-9.6543,-9.6309,-9.6417,-9.6434,-9.6512,-9.6579,-9.6582,-9.6492,-9.6478,-9.663,-9.6648,-9.6669,-9.6963,-9.6701,-9.6714,-9.6721,-9.7346,-9.7357,-9.7367,0,0,0,0,0,0,-9.6203,-9.6239,-9.6528,-9.6387,-9.6422,-9.6433,-9.6522,-9.6519,-9.6569,-9.6592,-9.6592,-9.6542,-9.6624,-9.665,-9.6838,-9.6966,-9.672,-9.6732,-9.7336,-9.735,-9.7362,-9.7554,0,0,0,0,0,0,-9.6191,-9.6237,-9.6333,-9.6391,-9.643,-9.6699,-9.653,-9.6528,-9.6594,-9.6577,-9.664,-9.6642,-9.662,-9.6819,-9.6852,-9.698,-9.6742,-9.7324,-9.7342,-9.7358,-9.7536,-9.7572,-9.7603,0,0,0,0,0,-9.6177,-9.6379,-9.6338,-9.6375,-9.6551,-9.6706,-9.6728,-9.6701,-9.6605,-9.67,-9.6715,-9.664,-9.6947,-9.6839,-9.6875,-9.7009,-9.7316,-9.7337,-9.7356,-9.7521,-9.7565,-9.7602,0,0,0,0,0,0,-9.6333,-9.6386,-9.6341,-9.6569,-9.6635,-9.6683,-9.6803,-9.6748,-9.684,-9.6821,-9.678,-9.6795,-9.6995,-9.702,-9.69,-9.7252,-9.7115,-9.7144,-9.7228,-9.727,-9.7303,-9.7292,-9.6754,0,0,0,0,0,-9.6395,-9.6519,-9.6557,-9.6754,-9.679,-9.6791,-9.6858,-9.6831,-9.6896,-9.6923,-9.6951,-9.7015,-9.7125,-9.7199,-9.7302,-9.7539,-9.755,-9.7649,-9.7682,-9.7709,-9.7734,-9.786,-9.7904,-9.7433,-9.7433,-9.7433,0,0,-9.6522,-9.6566,-9.6647,-9.6787,-9.6834,-9.6962,-9.6815,-9.6956,-9.705,-9.6943,-9.7124,-9.7147,-9.7215,-9.743,-9.7525,-9.7457,-9.7867,-9.7735,-9.7757,-9.7767,-9.7886,-9.793,-9.797,-9.7447,-9.7445,-9.7442,0,0,-9.6818,-9.6865,-9.7034,-9.7086,-9.7161,-9.716,-9.7201,-9.7259,-9.7271,-9.7452,-9.7375,-9.7484,-9.7675,-9.7727,-9.7779,-9.8096,-9.803,-9.813,-9.8305,-9.8428,-9.8465,-9.8498,-9.861,-9.8651,-9.8155,-9.8156,-9.8156,0,-9.6966,-9.7158,-9.7127,-9.7275,-9.7338,-9.725,-9.7419,-9.747,-9.7574,-9.7618,-9.7541,-9.778,-9.782,-9.8045,-9.8122,-9.8167,-9.821,-9.8123,-9.8463,-9.8496,-9.8525,-9.8632,-9.8674,-9.8167,-9.8166,-9.8165,-9.8164,0,-9.7335,-9.7469,-9.7596,-9.7702,-9.7779,-9.7937,-9.7928,-9.801,-9.7976,-9.7983,-9.8168,-9.8213,-9.8323,-9.8375,-9.8342,-9.8595,-9.855,-9.847,-9.8331,-9.8583,-9.8682,-9.8723,-9.8184,-9.818,-9.8176,-9.8173,0,0,-9.7734,-9.7822,-9.7869,-9.7916,-9.7992,-9.8094,-9.8247,-9.8357,-9.8428,-9.8502,-9.8628,-9.8792,-9.8718,-9.8777,-9.8749,-9.8858,-9.9105,-9.8763,-9.8764,-9.8824,-9.9385,-9.9445,-9.9493,-9.9062,-9.907,-9.9076,-9.9379,0,-9.8033,-9.8302,-9.8279,-9.8532,-9.8655,-9.8573,-9.8706,-9.8766,-9.8777,-9.888,-9.8889,-9.9007,-9.8901,-9.8935,-9.9039,-9.9053,-9.9217,-9.9031,-9.9177,-9.9182,-9.9162,-9.9545,-9.9609,-9.9893,-9.9417,-9.9424,-9.9429,0,-9.8418,-9.8509,-9.8776,-9.8834,-9.8884,-9.9005,-9.9104,-9.9205,-9.927,-9.927,-9.9337,-9.9291,-9.9442,-9.9301,-9.9507,-9.9382,-9.9439,-9.9455,-9.9466,-9.9478,-9.932,-9.9566,-9.9983,-10.0025,-9.949,-9.9485,-9.948,0,-9.8681,-9.887,-9.9054,-9.9097,-9.917,-9.9256,-9.9289,-9.9347,-9.9415,-9.9501,-9.9544,-9.9646,-9.9701,-9.978,-9.9761,-9.9661,-9.9972,-9.983,-9.9974,-9.9975,-10.0043,-10.0039,-10.0474,-10.0082,-10.0081,-10.0081,-10.008,0,-9.9018,-9.9184,-9.9174,-9.9287,-9.947,-9.9441,-9.9622,-9.9644,-9.9697,-9.9811,-9.9745,-9.9853,-9.9823,-9.9928,-9.9915,-10.0087,-10.0113,-10.0115,-10.0109,-10.0121,-10.0121,-10.0158,-10.0137,-10.0092,-10.0089,-10.0087,-10.0085,0,-9.9343,-9.9343,-9.9538,-9.9592,-9.9609,-9.9741,-9.9785,-9.9891,-9.9896,-10.0042,-10.0074,-10.0082,-10.0203,-10.0193,-10.0328,-10.0319,-10.0533,-10.0503,-10.0512,-10.0505,-10.065,-10.0636,-10.1123,-10.1185,-10.0754,-10.0758,-10.0762,0,-9.9557,-9.9683,-9.9751,-9.9825,-9.9865,-9.9983,-10.0053,-10.0028,-10.0103,-10.0188,-10.0283,-10.0399,-10.049,-10.0687,-10.0703,-10.0806,-10.0778,-10.0942,-10.0793,-10.0801,-10.078,-10.0773,-10.0785,-10.0971,-10.0976,-10.098,-10.0983,0,-9.9937,-9.9931,-10.0036,-10.0142,-10.0228,-10.0308,-10.0382,-10.0445,-10.0427,-10.0514,-10.0639,-10.071,-10.085,-10.0965,-10.1063,-10.1094,-10.1036,-10.103,-10.1069,-10.1082,-10.1081,-10.1083,-10.0591,-10.1019,-10.1015,-10.1013,-10.1011,-10.1009,-10.0213,-10.0321,-10.0387,-10.0505,-10.0558,-10.0629,-10.0731,-10.075,-10.0855,-10.0969,-10.0947,-10.1087,-10.1147,-10.1274,-10.1315,-10.1422,-10.1362,-10.1419,-10.1433,-10.1447,-10.1464,-10.1065,-10.144,-10.1438,-10.1437,-10.1437,-10.1436,0,-10.0589,-10.0627,-10.0737,-10.0843,-10.0937,-10.0876,-10.0955,-10.1035,-10.1161,-10.1224,-10.1316,-10.1459,-10.157,-10.1596,-10.1702,-10.1783,-10.1758,-10.1811,-10.1804,-10.1812,-10.1511,-10.1467,-10.1829,-10.1829,-10.1829,-10.1829,-10.1829,-10.1829,-10.0795,-10.0976,-10.0978,-10.1183,-10.1219,-10.1359,-10.1408,-10.1472,-10.1522,-10.1686,-10.178,-10.1796,-10.1844,-10.1953,-10.2052,-10.2056,-10.2098,-10.2161,-10.2155,-10.1873,-10.1834,-10.1796,-10.1754,-10.2171,-10.2171,-10.2447,-10.245,-10.2452]}]]